EW6157 Weather Reports


time (UTC)temp
C
wind
direction
speed
KPH
gust
KPH
rain 1hr
cm
rain 24hr
cm
rain mn
cm
humidity
%
barometer
mb
20260506194604 14 96 4.8 20.9 0.00 0.00 0.00 49 1013.8
20260506193052 14 165 6.4 20.9 0.00 0.00 0.00 49 1014.2
20260506191551 15 167 6.4 17.7 0.00 0.00 0.00 49 1014.2
20260506190050 14 138 9.7 16.1 0.00 0.00 0.00 48 1014.5
20260506184600 14 154 8.0 16.1 0.00 0.00 0.00 49 1014.4
20260506183059 14 107 6.4 17.7 0.00 0.00 0.00 50 1014.8
20260506181547 13 131 4.8 14.5 0.00 0.00 0.00 52 1015.0
20260506180049 14 124 8.0 12.9 0.00 0.00 0.00 48 1015.3
20260506174546 13 98 3.2 11.3 0.00 0.00 0.00 51 1015.3
20260506173049 13 351 3.2 12.9 0.00 0.00 0.00 51 1015.4
20260506171541 11 151 4.8 12.9 0.00 0.00 0.00 55 1015.4
20260506170057 12 155 3.2 12.9 0.00 0.00 0.00 54 1015.4
20260506164537 12 120 4.8 9.7 0.00 0.00 0.00 54 1015.4
20260506163034 11 115 3.2 12.9 0.00 0.00 0.00 58 1015.4
20260506161533 10 101 4.8 12.9 0.00 0.00 0.00 59 1015.3
20260506160032 10 192 1.6 14.5 0.00 0.00 0.00 60 1015.0
20260506154531 9 155 3.2 11.3 0.00 0.00 0.00 64 1014.9
20260506153024 8 202 0.0 8.0 0.00 0.00 0.00 64 1014.8
20260506151522 8 183 3.2 12.9 0.00 0.00 0.00 65 1014.8
20260506150019 8 187 1.6 11.3 0.00 0.00 0.00 67 1014.9
20260506144517 8 181 3.2 9.7 0.00 0.00 0.00 65 1014.6
20260506143025 8 188 4.8 11.3 0.00 0.00 0.00 67 1014.3
20260506141511 7 166 6.4 16.1 0.00 0.00 0.00 68 1013.9
20260506140011 6 157 8.0 16.1 0.00 0.00 0.00 70 1014.1
20260506134511 6 143 9.7 19.3 0.00 0.00 0.00 71 1013.9
20260506133009 6 158 9.7 17.7 0.00 0.00 0.00 71 1013.9
20260506131510 6 155 6.4 14.5 0.00 0.00 0.00 73 1014.1
20260506130012 5 163 6.4 12.9 0.00 0.00 0.00 74 1014.5
20260506124506 5 120 4.8 11.3 0.00 0.00 0.00 74 1014.3
20260506123006 5 158 4.8 8.0 0.00 0.00 0.00 75 1014.1
20260506121503 5 123 6.4 12.9 0.00 0.00 0.00 76 1013.9
20260506120002 5 124 3.2 12.9 0.00 0.00 0.00 78 1013.7
20260506114558 5 122 6.4 14.5 0.00 0.00 0.00 82 1013.3
20260506113058 5 129 6.4 16.1 0.00 0.00 0.00 84 1013.2
20260506111555 5 136 6.4 16.1 0.00 0.00 0.00 84 1012.6
20260506110054 5 120 8.0 17.7 0.00 0.00 0.00 86 1012.9
20260506104550 5 176 6.4 16.1 0.00 0.00 0.00 86 1012.8
20260506103053 5 120 9.7 17.7 0.00 0.00 0.00 85 1012.7
20260506101544 6 130 6.4 12.9 0.00 0.00 0.00 83 1012.5
20260506100042 6 148 6.4 14.5 0.00 0.00 0.00 82 1012.2
20260506094539 6 137 8.0 19.3 0.00 0.00 0.00 81 1011.7
20260506093036 6 159 8.0 17.7 0.00 0.00 0.00 79 1011.3
20260506091535 6 136 9.7 16.1 0.00 0.00 0.00 78 1011.0
20260506090044 6 134 8.0 16.1 0.00 0.00 0.00 78 1010.8
20260506084534 6 101 4.8 19.3 0.00 0.00 0.00 78 1011.0
20260506083032 6 105 8.0 14.5 0.00 0.00 0.00 78 1010.9
20260506081531 6 118 6.4 17.7 0.00 0.00 0.00 78 1010.6
20260506073023 6 141 6.4 12.9 0.00 0.00 0.00 79 1009.6
20260506071522 6 136 6.4 14.5 0.00 0.00 0.00 79 1010.0
20260506061515 6 141 3.2 14.5 0.00 0.00 0.00 76 1009.7
20260506050108 7 164 6.4 14.5 0.00 0.00 0.00 70 1008.0
20260506044552 8 133 6.4 20.9 0.00 0.00 0.00 67 1008.0
20260506043046 8 129 8.0 14.5 0.00 0.00 0.00 66 1007.9
20260506041536 8 129 6.4 20.9 0.00 0.00 0.00 64 1007.6
20260506040032 9 142 4.8 12.9 0.00 0.00 0.00 62 1007.8
20260506034530 10 152 8.0 12.9 0.00 0.00 0.00 61 1007.5
20260506033026 10 147 6.4 17.7 0.00 0.00 0.00 60 1007.1
20260506031529 10 126 9.7 19.3 0.00 0.00 0.00 59 1007.0
20260506030022 10 119 6.4 17.7 0.00 0.00 0.00 58 1006.8
20260506024534 11 113 9.7 22.5 0.00 0.00 0.00 56 1006.3
20260506023016 11 146 11.3 17.7 0.00 0.00 0.00 55 1006.3
20260506021512 11 136 6.4 24.1 0.00 0.00 0.00 54 1006.1
20260506020010 12 161 9.7 19.3 0.00 0.00 0.00 53 1005.6
20260506014509 13 137 9.7 19.3 0.00 0.00 0.00 50 1005.1
20260506013007 13 57 3.2 14.5 0.00 0.00 0.00 49 1005.2
20260506011507 13 100 4.8 20.9 0.00 0.00 0.00 48 1004.7
20260506010007 13 117 11.3 20.9 0.00 0.00 0.00 47 1004.3
20260506004507 14 147 9.7 22.5 0.00 0.00 0.00 46 1003.9
20260506003005 15 102 12.9 22.5 0.00 0.00 0.00 46 1003.5
20260506001604 15 146 9.7 22.5 0.00 0.00 0.00 45 1003.2
20260506000100 15 139 9.7 19.3 0.00 0.00 0.00 45 1003.3
20260505234507 15 170 11.3 22.5 0.00 0.00 0.00 44 1003.3
20260505233114 16 162 9.7 19.3 0.00 0.00 0.00 44 1003.2
20260505231535 16 135 11.3 19.3 0.00 0.00 0.00 43 1003.2
20260505230133 16 102 6.4 19.3 0.00 0.00 0.00 43 1003.3
20260505224557 16 135 6.4 14.5 0.00 0.00 0.00 43 1003.4
20260505223043 16 113 8.0 12.9 0.00 0.00 0.00 42 1003.5
20260505221511 16 120 3.2 16.1 0.00 0.00 0.00 42 1003.5
20260505220113 17 53 6.4 14.5 0.00 0.00 0.00 41 1003.8
20260505214603 17 131 4.8 9.7 0.00 0.00 0.00 40 1003.6
20260505213005 17 22 3.2 11.3 0.00 0.00 0.00 41 1004.5
20260505211546 16 142 3.2 14.5 0.00 0.00 0.00 42 1004.6
20260505210046 16 199 1.6 12.9 0.00 0.00 0.00 43 1004.7
20260505204546 16 104 3.2 11.3 0.00 0.00 0.00 43 1004.9
20260505203043 16 129 4.8 16.1 0.00 0.00 0.00 42 1004.9
20260505201542 16 127 8.0 12.9 0.00 0.00 0.00 42 1005.1
20260505200055 16 360 0.0 19.3 0.00 0.00 0.00 42 1004.8